Lamar, CO

1:55 AM MST on December 11, 2019 (GMT -0700)
Lamar Municipal

Weather History for KLAA - October, 2019

Change the Weather History Date:

Saturday, October 12, 2019

  Actual Average Record
Temperature  
Mean Temperature 44 °F 54 °F  
Max Temperature 72 °F 72 °F 95 °F (1975)
Min Temperature 15 °F 37 °F 15 °F (2019)
Degree Days  
Heating Degree Days 21 11  
Month to date heating degree days 141 103  
Since 1 July heating degree days 147 186  
Cooling Degree Days 0 0  
Month to date cooling degree days 1 8  
Year to date cooling degree days 1406 1120  
Moisture  
Dew Point 6 °F    
Average Humidity 32    
Maximum Humidity 57    
Minimum Humidity 6    
Precipitation  
Precipitation 0.00 in 0.03 in 1.60 in (1974)
Month to date precipitation 0.01 0.31  
Year to date precipitation 7.76 13.93  
Sea Level Pressure  
Sea Level Pressure 29.99 in    
Wind  
Wind Speed 7 mph (SSE)    
Max Wind Speed 14 mph    
Max Gust Speed 21 mph    
Visibility 10 miles    
Events      
T = Trace of Precipitation, MM = Missing Value Source: NWS Daily Summary

Daily Weather History Graph

Daily Weather History Graph

Search for Another Location

Airport or City:

Astronomy

Oct. 12, 2019 Rise Set
Actual Time 6:56 AM MDT 6:17 PM MDT
Civil Twilight 6:29 AM MDT 6:43 PM MDT
Nautical Twilight 5:59 AM MDT 7:14 PM MDT
Astronomical Twilight 5:28 AM MDT 7:44 PM MDT
Moon 6:12 PM MDT (10/12) 5:38 AM MDT (10/12)
Length of Visible Light 12h 14m
Length of Day
11h 21m
Waxing Gibbous, 99% of the Moon is Illuminated
Oct 12
Waxing Gibbous
Oct 13
Full
Oct 21
Last Quarter
Oct 27
New
Nov 4
First Quarter

Hourly Weather History & Observations

Time (MDT) Temp. Windchill Dew Point Humidity Pressure Visibility Wind Dir Wind Speed Gust Speed Precip Events Conditions
12:53 AM 23.0 °F 17.0 °F 9.0 °F 55% 30.15 in 10.0 mi NE 4.6 mph - N/A   Clear
1:53 AM 26.1 °F 19.4 °F 1.9 °F 35% 30.11 in 10.0 mi ENE 5.8 mph - N/A   Clear
2:53 AM 21.9 °F - 8.1 °F 55% 30.09 in 10.0 mi Calm Calm - N/A   Clear
3:53 AM 19.9 °F 13.4 °F 7.0 °F 57% 30.08 in 10.0 mi SW 4.6 mph - N/A   Clear
4:53 AM 17.1 °F 8.7 °F 1.9 °F 52% 30.09 in 10.0 mi SSW 5.8 mph - N/A   Clear
5:53 AM 23.0 °F 10.6 °F 5.0 °F 46% 30.08 in 10.0 mi West 13.8 mph - N/A   Clear
6:53 AM 19.9 °F 10.1 °F 7.0 °F 57% 30.11 in 10.0 mi WNW 8.1 mph - N/A   Clear
7:53 AM 26.1 °F 16.8 °F 9.0 °F 49% 30.11 in 10.0 mi West 9.2 mph - N/A   Clear
8:53 AM 37.9 °F 31.5 °F 12.9 °F 36% 30.08 in 10.0 mi WNW 9.2 mph - N/A   Clear
9:53 AM 45.0 °F 38.9 °F 10.0 °F 24% 30.07 in 10.0 mi WNW 12.7 mph - N/A   Clear
10:53 AM 53.1 °F - 8.1 °F 16% 30.04 in 10.0 mi WNW 8.1 mph - N/A   Clear
11:53 AM 60.1 °F - 10.0 °F 14% 30.00 in 10.0 mi WNW 3.5 mph - N/A   Clear
12:53 PM 66.0 °F - 5.0 °F 9% 29.95 in 10.0 mi Variable 5.8 mph - N/A   Clear
1:53 PM 69.1 °F - 3.9 °F 8% 29.90 in 10.0 mi ESE 11.5 mph 18.4 mph N/A   Clear
2:53 PM 70.0 °F - 1.0 °F 7% 29.88 in 10.0 mi SE 10.4 mph - N/A   Clear
3:53 PM 71.1 °F - 1.9 °F 7% 29.88 in 10.0 mi East 10.4 mph 20.7 mph N/A   Clear
4:53 PM 70.0 °F - -0.0 °F 6% 29.88 in 10.0 mi ESE 9.2 mph - N/A   Clear
5:53 PM 64.0 °F - 1.9 °F 8% 29.88 in 10.0 mi ESE 9.2 mph - N/A   Clear
6:53 PM 53.1 °F - 3.9 °F 14% 29.92 in 10.0 mi ESE 10.4 mph - N/A   Clear
7:53 PM 50.0 °F - 5.0 °F 16% 29.91 in 10.0 mi SE 11.5 mph - N/A   Clear
8:53 PM 43.0 °F 37.7 °F 5.0 °F 21% 29.90 in 10.0 mi ESE 9.2 mph - N/A   Clear
9:53 PM 39.0 °F - 5.0 °F 24% 29.90 in 10.0 mi Calm Calm - N/A   Clear
10:53 PM 39.0 °F - 9.0 °F 29% 29.88 in 10.0 mi Calm Calm - N/A   Clear
11:53 PM 36.0 °F - 9.0 °F 33% 29.87 in 10.0 mi Calm Calm - N/A   Clear